Location: Unspecified
(51.5147°N, 7.4673°E)
Time: 09:36:35
(UTC+01:00)

Vanguard 1 Rocket - All Passes

Search period start: 16 February 2026 00:00
Search period end: 26 February 2026 00:00
Orbit: 652 x 4215 km, 34.3° (Epoch: 12 February)

Date Brightness Start Highest point End Pass type
(mag) Time Alt. Az. Time Alt. Az. Time Alt. Az.
16 Feb - 12:59:54 10° S 13:07:11 21° SE 13:17:58 10° E daylight
16 Feb - 15:20:32 10° SW 15:31:54 40° SSE 15:51:11 10° ESE daylight
16 Feb - 17:44:34 10° WSW 17:59:28 42° S 18:21:44 10° SE visible
16 Feb - 20:11:50 10° W 20:27:45 28° SW 20:46:58 10° SSE visible
17 Feb - 11:53:12 10° SE 11:55:39 11° SE 11:58:23 10° ESE daylight
17 Feb - 14:09:35 10° SSW 14:18:55 33° SSE 14:34:37 10° E daylight
17 Feb - 16:32:21 10° WSW 16:45:14 43° S 17:06:20 10° ESE daylight
17 Feb - 18:57:52 10° W 19:13:22 34° SSW 19:34:21 10° SSE visible
17 Feb - 21:29:23 10° WSW 21:40:50 16° SW 21:53:22 10° SSW visible
18 Feb - 12:59:28 10° S 13:06:41 23° SE 13:17:47 10° E daylight
18 Feb - 15:20:42 10° SW 15:31:35 40° S 15:50:17 10° ESE daylight
18 Feb - 17:44:55 10° WSW 17:59:00 39° SSW 18:20:17 10° SE visible
18 Feb - 20:12:44 10° W 20:26:57 24° SW 20:44:12 10° S visible
19 Feb - 11:51:12 10° SSE 11:55:05 13° SE 11:59:54 10° ESE daylight
19 Feb - 14:09:38 10° SW 14:18:36 34° SSE 14:33:56 10° ESE daylight
19 Feb - 16:32:39 10° WSW 16:44:55 41° S 17:05:08 10° SE daylight
19 Feb - 18:58:27 10° W 19:12:46 30° SSW 19:32:13 10° SSE visible
19 Feb - 21:33:28 10° WSW 21:39:54 12° SW 21:46:44 10° SSW visible
20 Feb - 12:59:16 10° SSW 13:06:19 25° SSE 13:17:28 10° E daylight
20 Feb - 15:20:58 10° WSW 15:31:21 39° S 15:49:19 10° ESE daylight
20 Feb - 17:45:22 10° WSW 17:58:35 35° SSW 18:18:35 10° SE daylight
20 Feb - 20:14:12 10° WSW 20:26:12 19° SW 20:40:38 10° S visible
21 Feb - 11:50:13 10° S 11:54:39 15° SE 12:00:30 10° ESE daylight
21 Feb - 14:09:49 10° SW 14:18:23 34° SSE 14:33:12 10° ESE daylight
21 Feb - 16:33:04 10° WSW 16:44:39 38° S 17:03:46 10° SE daylight
21 Feb - 18:59:18 10° WSW 19:12:14 25° SSW 19:29:38 10° SSE visible
22 Feb - 12:59:14 10° SSW 13:06:04 26° SSE 13:17:03 10° ESE daylight
22 Feb - 15:21:19 10° WSW 15:31:11 37° S 15:48:14 10° ESE daylight
22 Feb - 17:46:00 10° WSW 17:58:14 31° SSW 18:16:34 10° SSE daylight
22 Feb - 20:16:45 10° WSW 20:25:31 14° SW 20:35:40 10° SSW visible
23 Feb - 11:49:40 10° S 11:54:20 17° SE 12:00:44 10° ESE daylight
23 Feb - 14:10:05 10° SW 14:18:16 34° SSE 14:32:24 10° ESE daylight
23 Feb - 16:33:34 10° WSW 16:44:28 34° SSW 17:02:12 10° SE daylight
23 Feb - 19:00:33 10° WSW 19:11:45 21° SSW 19:26:25 10° S visible
24 Feb - 12:59:22 10° SSW 13:05:56 27° SSE 13:16:35 10° ESE daylight
24 Feb - 15:21:46 10° WSW 15:31:06 35° S 15:47:02 10° SE daylight
24 Feb - 17:46:50 10° WSW 17:57:56 26° SSW 18:14:11 10° SSE daylight
25 Feb - 11:49:26 10° S 11:54:08 18° SSE 12:00:46 10° ESE daylight
25 Feb - 14:10:27 10° SW 14:18:13 33° S 14:31:32 10° ESE daylight
25 Feb - 16:34:14 10° WSW 16:44:19 30° SSW 17:00:23 10° SE daylight
25 Feb - 19:02:36 10° WSW 19:11:20 16° SW 19:22:11 10° S visible
